Weather History for Youngstown, OH

Change the Weather History Date:

Sunday, September 23, 2012

  Actual Average Record
Temperature  
Mean Temperature 50 °F 59 °F  
Max Temperature 58 °F 69 °F 88 °F (1936)
Min Temperature 41 °F 49 °F 32 °F (1995)
Degree Days  
Heating Degree Days 15 7  
Month to date heating degree days 109 89  
Since 1 July heating degree days 115 127  
Cooling Degree Days 0 1  
Month to date cooling degree days 64 45  
Year to date cooling degree days 758 531  
Moisture  
Dew Point 42 °F    
Average Humidity 75    
Maximum Humidity 96    
Minimum Humidity 54    
Precipitation  
Precipitation 0.00 in 0.12 in 1.56 in (2000)
Month to date precipitation 4.02 2.92  
Year to date precipitation 32.46 29.14  
Snow  
Snow 0.00 in 0.00 in - ()
Month to date snowfall 0.0 0.0  
Since 1 July snowfall T 0.0  
Since 1 September snowfall 0.0 0.0  
Snow Depth 0.00 in    
Sea Level Pressure  
Sea Level Pressure 30.15 in    
Wind  
Wind Speed 5 mph (WSW)    
Max Wind Speed 18 mph    
Max Gust Speed 28 mph    
Visibility 8 miles    
Events Fog    
T = Trace of Precipitation, MM = Missing Value Source: NWS Daily Summary

Daily Weather History Graph

Daily Weather History Graph

Search for Another Location

Airport:

Trip Planner

Search our weather history database for the weather conditions in past years. The results will help you decide how hot, cold, wet, or windy it might be!

Date:

Astronomy

Sep. 23, 2012 Rise Set
Actual Time 7:11 AM EDT 7:17 PM EDT
Civil Twilight 6:44 AM EDT 7:44 PM EDT
Nautical Twilight 6:11 AM EDT 8:17 PM EDT
Astronomical Twilight 5:39 AM EDT 8:49 PM EDT
Moon 3:20 PM EDT (9/23) 12:18 AM EDT (9/23)
Length of Visible Light 13h 00m
Length of Day
12h 05m
First Quarter, 60% of the Moon is Illuminated
Sep 23
First Quarter
Sep 29
Full
Oct 8
Last Quarter
Oct 15
New
Oct 21
First Quarter

Hourly Weather History & Observations

Time (EDT) Temp. Windchill Dew Point Humidity Pressure Visibility Wind Dir Wind Speed Gust Speed Precip Events Conditions
12:33 AM 46.4 °F 41.9 °F 44.6 °F 93% 30.06 in 10.0 mi WSW 9.2 mph - N/A   Overcast
12:51 AM 45.0 °F 42.6 °F 43.0 °F 93% 30.08 in 10.0 mi WSW 4.6 mph - N/A   Overcast
1:51 AM 45.0 °F 41.8 °F 43.0 °F 93% 30.09 in 10.0 mi SW 5.8 mph - N/A   Overcast
2:51 AM 44.1 °F 41.5 °F 43.0 °F 96% 30.09 in 10.0 mi South 4.6 mph - N/A   Mostly Cloudy
3:51 AM 44.1 °F 39.0 °F 42.1 °F 93% 30.10 in 10.0 mi SW 9.2 mph - N/A   Overcast
4:38 AM 42.8 °F 39.3 °F 42.8 °F 100% 30.10 in 10.0 mi SW 5.8 mph - N/A   Mostly Cloudy
4:51 AM 42.1 °F 40.2 °F 41.0 °F 96% 30.11 in 8.0 mi WSW 3.5 mph - N/A   Mostly Cloudy
5:51 AM 42.1 °F 40.2 °F 41.0 °F 96% 30.13 in 8.0 mi West 3.5 mph - N/A   Scattered Clouds
6:33 AM 42.8 °F - 39.2 °F 87% 30.12 in 8.0 mi Calm Calm - N/A Fog Shallow Fog
6:51 AM 41.0 °F - 39.9 °F 96% 30.14 in 5.0 mi Calm Calm - N/A Fog Shallow Fog
7:33 AM 41.0 °F 37.1 °F 39.2 °F 93% 30.13 in 0.5 mi SSW 5.8 mph - N/A Fog Fog
7:36 AM 41.0 °F 37.1 °F 39.2 °F 93% 30.13 in 0.1 mi South 5.8 mph - N/A Fog Fog
7:44 AM 42.8 °F 39.3 °F 39.2 °F 87% 30.13 in 0.1 mi SSW 5.8 mph - N/A Fog Fog
7:51 AM 42.1 °F 38.4 °F 41.0 °F 96% 30.16 in 0.2 mi SSW 5.8 mph - N/A Fog Fog
8:05 AM 42.8 °F 40.1 °F 42.8 °F 100% 30.14 in 2.0 mi SW 4.6 mph - N/A   Mostly Cloudy
8:20 AM 44.6 °F 43.1 °F 42.8 °F 93% 30.14 in 5.0 mi SSW 3.5 mph - N/A   Mostly Cloudy
8:38 AM 44.6 °F 42.2 °F 42.8 °F 93% 30.15 in 6.0 mi SW 4.6 mph - N/A   Mostly Cloudy
8:51 AM 45.0 °F 42.6 °F 43.0 °F 93% 30.17 in 7.0 mi WSW 4.6 mph - N/A   Mostly Cloudy
9:51 AM 48.0 °F - 44.1 °F 86% 30.18 in 10.0 mi Variable 5.8 mph - N/A   Mostly Cloudy
10:39 AM 50.0 °F - 44.6 °F 82% 30.17 in 10.0 mi SW 4.6 mph - N/A   Mostly Cloudy
10:51 AM 51.1 °F - 44.1 °F 77% 30.18 in 10.0 mi Variable 5.8 mph - N/A   Mostly Cloudy
11:34 AM 53.6 °F - 44.6 °F 72% 30.16 in 10.0 mi SW 6.9 mph - N/A   Mostly Cloudy
11:51 AM 53.1 °F - 44.1 °F 71% 30.17 in 10.0 mi Variable 4.6 mph - N/A   Mostly Cloudy
12:51 PM 54.0 °F - 41.0 °F 62% 30.16 in 10.0 mi WNW 6.9 mph - N/A   Mostly Cloudy
1:15 PM 55.4 °F - 42.8 °F 63% 30.15 in 10.0 mi NW 8.1 mph - N/A   Mostly Cloudy
1:51 PM 55.0 °F - 44.1 °F 67% 30.15 in 10.0 mi NW 8.1 mph - N/A   Mostly Cloudy
2:51 PM 52.0 °F - 39.9 °F 63% 30.17 in 10.0 mi WNW 12.7 mph 23.0 mph N/A   Mostly Cloudy
3:51 PM 54.0 °F - 37.9 °F 55% 30.16 in 10.0 mi NW 10.4 mph - N/A   Mostly Cloudy
4:51 PM 55.9 °F - 41.0 °F 57% 30.17 in 10.0 mi NW 9.2 mph - N/A   Mostly Cloudy
5:51 PM 53.1 °F - 39.9 °F 61% 30.16 in 10.0 mi WNW 4.6 mph - N/A   Mostly Cloudy
6:51 PM 51.1 °F - 39.9 °F 66% 30.17 in 10.0 mi WNW 6.9 mph - N/A   Mostly Cloudy
7:51 PM 48.9 °F - 41.0 °F 74% 30.18 in 10.0 mi NNW 4.6 mph - N/A   Mostly Cloudy
8:51 PM 46.9 °F - 41.0 °F 80% 30.19 in 10.0 mi Calm Calm - N/A   Mostly Cloudy
9:51 PM 46.0 °F - 43.0 °F 89% 30.20 in 10.0 mi Calm Calm - N/A   Mostly Cloudy
10:51 PM 46.0 °F 43.1 °F 42.1 °F 86% 30.21 in 10.0 mi NNE 5.8 mph - N/A   Overcast
11:51 PM 46.0 °F - 43.0 °F 89% 30.21 in 10.0 mi Calm Calm - N/A   Overcast